| time (UTC) | temp C | wind direction | speed KPH | gust KPH | rain 1hr cm | rain 24hr cm | rain mn cm | humidity % | barometer mb |
| 20260906121605 | 20 | 0 | 0.0 | 0.0 | 0.00 | 0.00 | 0.00 | 96 | 1017.8 |
| 20260906120111 | 18 | 0 | 0.0 | 0.0 | 0.00 | 0.00 | 0.00 | 95 | 1017.7 |
| 20260906114558 | 18 | 0 | 0.0 | 0.0 | 0.00 | 0.00 | 0.00 | 95 | 1017.5 |
| 20260906113108 | 18 | 0 | 0.0 | 0.0 | 0.00 | 0.00 | 0.00 | 95 | 1017.4 |
| 20260906111602 | 18 | 0 | 0.0 | 0.0 | 0.00 | 0.00 | 0.00 | 94 | 1017.2 |
| 20260906110057 | 18 | 0 | 0.0 | 0.0 | 0.00 | 0.00 | 0.00 | 94 | 1017.3 |
| 20260906104557 | 18 | 0 | 0.0 | 0.0 | 0.00 | 0.00 | 0.00 | 94 | 1016.8 |
| 20260906103059 | 19 | 0 | 0.0 | 0.0 | 0.00 | 0.00 | 0.00 | 94 | 1016.9 |
| 20260906101553 | 19 | 0 | 0.0 | 0.0 | 0.00 | 0.00 | 0.00 | 94 | 1016.9 |
| 20260906100057 | 19 | 0 | 0.0 | 0.0 | 0.00 | 0.00 | 0.00 | 94 | 1016.8 |
| 20260906094558 | 19 | 0 | 0.0 | 0.0 | 0.00 | 0.00 | 0.00 | 93 | 1016.6 |
| 20260906093058 | 19 | 0 | 0.0 | 0.0 | 0.00 | 0.00 | 0.00 | 93 | 1016.6 |
| 20260906091550 | 20 | 0 | 0.0 | 0.0 | 0.00 | 0.00 | 0.00 | 93 | 1016.6 |
| 20260906090100 | 20 | 0 | 0.0 | 0.0 | 0.00 | 0.00 | 0.00 | 92 | 1016.5 |
| 20260906084556 | 20 | 0 | 0.0 | 0.0 | 0.00 | 0.00 | 0.00 | 92 | 1016.6 |
| 20260906083054 | 20 | 0 | 0.0 | 1.6 | 0.00 | 0.00 | 0.00 | 91 | 1016.5 |
| 20260906081600 | 21 | 0 | 0.0 | 1.6 | 0.00 | 0.00 | 0.00 | 91 | 1016.5 |
| 20260906080058 | 21 | 0 | 0.0 | 0.0 | 0.00 | 0.00 | 0.00 | 91 | 1016.7 |
| 20260906074557 | 21 | 0 | 0.0 | 0.0 | 0.00 | 0.00 | 0.00 | 91 | 1016.7 |
| 20260906073059 | 21 | 0 | 0.0 | 1.6 | 0.00 | 0.00 | 0.00 | 91 | 1016.7 |
| 20260906071552 | 21 | 0 | 0.0 | 0.0 | 0.00 | 0.00 | 0.00 | 91 | 1016.6 |
| 20260906070058 | 21 | 0 | 0.0 | 1.6 | 0.00 | 0.00 | 0.00 | 91 | 1016.9 |
| 20260906064557 | 21 | 0 | 0.0 | 0.0 | 0.00 | 0.00 | 0.00 | 90 | 1016.7 |
| 20260906063057 | 21 | 0 | 0.0 | 4.8 | 0.00 | 0.00 | 0.00 | 90 | 1016.8 |
| 20260906061606 | 21 | 0 | 0.0 | 6.4 | 0.00 | 0.00 | 0.00 | 90 | 1016.8 |
| 20260906060059 | 21 | 0 | 0.0 | 3.2 | 0.00 | 0.00 | 0.00 | 90 | 1016.6 |
| 20260906054601 | 21 | 0 | 0.0 | 6.4 | 0.00 | 0.00 | 0.00 | 90 | 1016.4 |
| 20260906053058 | 21 | 0 | 0.0 | 4.8 | 0.00 | 0.00 | 0.00 | 90 | 1016.4 |
| 20260906051604 | 21 | 0 | 0.0 | 3.2 | 0.00 | 0.00 | 0.00 | 90 | 1016.5 |
| 20260906050053 | 21 | 0 | 0.0 | 1.6 | 0.00 | 0.00 | 0.00 | 90 | 1016.5 |
| 20260906044559 | 21 | 0 | 0.0 | 6.4 | 0.00 | 0.00 | 0.00 | 90 | 1016.3 |
| 20260906043055 | 21 | 5 | 0.0 | 3.2 | 0.00 | 0.00 | 0.00 | 89 | 1016.1 |
| 20260906041554 | 21 | 0 | 0.0 | 8.0 | 0.00 | 0.00 | 0.00 | 88 | 1015.8 |
| 20260906040050 | 21 | 5 | 0.0 | 12.9 | 0.00 | 0.00 | 0.00 | 88 | 1015.6 |
| 20260906034605 | 22 | 0 | 0.0 | 8.0 | 0.00 | 0.00 | 0.00 | 87 | 1015.5 |
| 20260906033056 | 22 | 0 | 1.6 | 9.7 | 0.00 | 0.00 | 0.00 | 87 | 1015.5 |
| 20260906031555 | 22 | 0 | 1.6 | 9.7 | 0.00 | 0.00 | 0.00 | 87 | 1015.7 |
| 20260906030056 | 22 | 5 | 0.0 | 6.4 | 0.00 | 0.00 | 0.00 | 87 | 1015.5 |
| 20260906024555 | 22 | 0 | 0.0 | 14.5 | 0.00 | 0.00 | 0.00 | 87 | 1015.7 |
| 20260906023051 | 22 | 5 | 0.0 | 9.7 | 0.00 | 0.00 | 0.00 | 87 | 1015.6 |
| 20260906021558 | 22 | 5 | 1.6 | 14.5 | 0.00 | 0.00 | 0.00 | 87 | 1015.6 |
| 20260906020056 | 22 | 5 | 1.6 | 14.5 | 0.00 | 0.00 | 0.00 | 87 | 1015.5 |
| 20260906014559 | 22 | 5 | 0.0 | 6.4 | 0.00 | 0.00 | 0.00 | 87 | 1015.7 |
| 20260906013059 | 22 | 5 | 0.0 | 17.7 | 0.00 | 0.00 | 0.00 | 86 | 1015.7 |
| 20260906011604 | 22 | 5 | 1.6 | 9.7 | 0.00 | 0.00 | 0.00 | 86 | 1015.7 |
| 20260906010058 | 22 | 5 | 3.2 | 14.5 | 0.00 | 0.00 | 0.00 | 86 | 1015.6 |
| 20260906004601 | 22 | 5 | 3.2 | 12.9 | 0.00 | 0.00 | 0.00 | 85 | 1015.4 |
| 20260906003058 | 22 | 5 | 1.6 | 9.7 | 0.00 | 0.00 | 0.00 | 85 | 1015.1 |
| 20260906001555 | 22 | 5 | 1.6 | 8.0 | 0.00 | 0.00 | 0.00 | 84 | 1014.9 |
| 20260906000057 | 23 | 5 | 1.6 | 8.0 | 0.00 | 0.00 | 0.00 | 83 | 1015.0 |
| 20260905234550 | 23 | 0 | 1.6 | 14.5 | 0.00 | 0.00 | 0.00 | 83 | 1014.9 |
| 20260905233106 | 24 | 5 | 1.6 | 19.3 | 0.00 | 0.00 | 0.00 | 81 | 1014.9 |
| 20260905231555 | 24 | 5 | 1.6 | 22.5 | 0.00 | 0.00 | 0.00 | 80 | 1014.6 |
| 20260905230059 | 25 | 5 | 4.8 | 14.5 | 0.00 | 0.00 | 0.00 | 78 | 1014.5 |
| 20260905224559 | 26 | 5 | 3.2 | 16.1 | 0.00 | 0.00 | 0.00 | 75 | 1014.2 |
| 20260905223055 | 27 | 0 | 1.6 | 16.1 | 0.00 | 0.00 | 0.00 | 73 | 1014.1 |
| 20260905221604 | 27 | 5 | 1.6 | 16.1 | 0.00 | 0.00 | 0.00 | 70 | 1014.0 |
| 20260905220058 | 28 | 5 | 0.0 | 6.4 | 0.00 | 0.00 | 0.00 | 69 | 1014.1 |
| 20260905214554 | 28 | 0 | 0.0 | 8.0 | 0.00 | 0.00 | 0.00 | 70 | 1014.1 |
| 20260905213110 | 28 | 5 | 1.6 | 8.0 | 0.00 | 0.00 | 0.00 | 72 | 1014.1 |
| 20260905211608 | 27 | 0 | 0.0 | 9.7 | 0.00 | 0.00 | 0.00 | 76 | 1014.2 |
| 20260905210108 | 26 | 5 | 1.6 | 6.4 | 0.00 | 0.00 | 0.00 | 78 | 1014.3 |
| 20260905204553 | 26 | 0 | 0.0 | 4.8 | 0.00 | 0.00 | 0.00 | 79 | 1014.5 |
| 20260905203058 | 26 | 5 | 0.0 | 6.4 | 0.00 | 0.00 | 0.00 | 78 | 1014.5 |
| 20260905201557 | 27 | 5 | 0.0 | 9.7 | 0.00 | 0.00 | 0.00 | 74 | 1014.5 |
| 20260905194554 | 28 | 5 | 1.6 | 9.7 | 0.00 | 0.00 | 0.00 | 72 | 1014.4 |
| 20260905193100 | 28 | 0 | 1.6 | 6.4 | 0.00 | 0.00 | 0.00 | 72 | 1014.5 |
| 20260905191555 | 28 | 5 | 3.2 | 11.3 | 0.00 | 0.00 | 0.00 | 71 | 1014.7 |
| 20260905190059 | 29 | 5 | 1.6 | 8.0 | 0.00 | 0.00 | 0.00 | 70 | 1014.7 |
| 20260905184606 | 30 | 5 | 1.6 | 14.5 | 0.00 | 0.00 | 0.00 | 69 | 1014.6 |
| 20260905183115 | 30 | 5 | 1.6 | 6.4 | 0.00 | 0.00 | 0.00 | 68 | 1014.7 |
| 20260905181555 | 31 | 5 | 1.6 | 9.7 | 0.00 | 0.00 | 0.00 | 66 | 1014.7 |
| 20260905174557 | 30 | 0 | 0.0 | 9.7 | 0.00 | 0.00 | 0.00 | 68 | 1014.4 |
| 20260905173053 | 31 | 5 | 3.2 | 12.9 | 0.00 | 0.00 | 0.00 | 68 | 1014.5 |
| 20260905171600 | 31 | 0 | 1.6 | 14.5 | 0.00 | 0.00 | 0.00 | 68 | 1014.4 |
| 20260905170100 | 31 | 5 | 3.2 | 12.9 | 0.00 | 0.00 | 0.00 | 68 | 1014.6 |
| 20260905164555 | 30 | 5 | 1.6 | 8.0 | 0.00 | 0.00 | 0.00 | 69 | 1014.7 |
| 20260905163053 | 30 | 5 | 3.2 | 8.0 | 0.00 | 0.00 | 0.00 | 69 | 1014.6 |
| 20260905161600 | 30 | 5 | 0.0 | 8.0 | 0.00 | 0.00 | 0.00 | 74 | 1014.5 |
| 20260905160106 | 30 | 5 | 1.6 | 6.4 | 0.00 | 0.00 | 0.00 | 71 | 1014.5 |
| 20260905154601 | 29 | 0 | 0.0 | 8.0 | 0.00 | 0.00 | 0.00 | 73 | 1014.4 |
| 20260905153105 | 28 | 5 | 1.6 | 8.0 | 0.00 | 0.00 | 0.00 | 76 | 1014.4 |
| 20260905151608 | 28 | 5 | 1.6 | 8.0 | 0.00 | 0.00 | 0.00 | 76 | 1014.1 |
| 20260905150057 | 27 | 0 | 0.0 | 9.7 | 0.00 | 0.00 | 0.00 | 77 | 1014.0 |
| 20260905144556 | 27 | 0 | 0.0 | 8.0 | 0.00 | 0.00 | 0.00 | 80 | 1013.9 |
| 20260905143103 | 26 | 5 | 0.0 | 4.8 | 0.00 | 0.00 | 0.00 | 84 | 1013.9 |
| 20260905141609 | 26 | 5 | 0.0 | 4.8 | 0.00 | 0.00 | 0.00 | 87 | 1013.8 |
| 20260905140108 | 25 | 5 | 1.6 | 8.0 | 0.00 | 0.00 | 0.00 | 85 | 1013.7 |
| 20260905134600 | 25 | 0 | 1.6 | 9.7 | 0.00 | 0.00 | 0.00 | 87 | 1013.7 |
| 20260905133101 | 25 | 5 | 1.6 | 8.0 | 0.00 | 0.00 | 0.00 | 88 | 1013.9 |
| 20260905131613 | 25 | 0 | 1.6 | 8.0 | 0.00 | 0.00 | 0.00 | 91 | 1014.0 |
| 20260905130100 | 24 | 0 | 0.0 | 8.0 | 0.00 | 0.00 | 0.00 | 94 | 1013.3 |
| 20260905124559 | 24 | 5 | 1.6 | 9.7 | 0.00 | 0.00 | 0.00 | 95 | 1013.1 |
| 20260905123056 | 24 | 0 | 0.0 | 4.8 | 0.00 | 0.00 | 0.00 | 95 | 1012.9 |